Погода в Белячьем

Россия / Астраханская область     46°42′07″N   48°03′03″E
темп.,
°C
ветер,
м/с
пор.,
м/с
влажн.,
%
обл.,
%
осадки,
мм/ч
давл.,
гПа
погр.,
м
17 мая, пн
пн1701:00+22в411320 0.0 1012215
04:00+20в511480 0.0 1011160
07:00+23вюв615400 0.0 1011396
10:00+30юв913170 0.0 10111607
13:00+33юв1012130 0.0 10112884
16:00+33юв910110 0.0 10102793
19:00+30вюв710130 0.0 1009889
22:00+24вюв410230 0.0 1009192
18 мая, вт
вт1801:00+22в512360 0.0 1008202
04:00+23вюв818334 0.0 1007410
07:00+25вюв817312 0.0 1008693
10:00+30юв11151772 0.0 10071287
13:00+29юв101520100 0.0 10081214
16:00+30юв81219100 0.0 10081041
19:00+27юв692666 0.0 1008613
22:00+21ю34458 0.0 100954
19 мая, ср
ср1901:00+19з597297 0.0 1008177
04:00+17зсз488053 0.0 1008189
07:00+19сз57715 0.0 1008233
10:00+27ссз32385 0.0 1006660
13:00+32з332353 0.0 10061938
16:00+32зсз642594 0.0 10061676
19:00+28зсз91230100 0.6 10081374
22:00+20зсз91561100 1.1 1011660
20 мая, чт
чт2001:00+19зсз61065100 1.4 1014580
04:00+18сз586928 1.6 1013546
07:00+17зсз68700 0.0 1015518
10:00+21з56460 0.0 10151252
13:00+25з78310 0.0 10151907
16:00+26з78280 0.0 10152134
19:00+25зсз68290 0.0 10152198
22:00+21зсз33381 0.0 101649
21 мая, пт
пт2101:00+19ссв124299 0.0 101721
04:00+18юв224514 0.0 101712
07:00+21юв34431 0.0 1018141
10:00+27юв56280 0.0 10171341
13:00+30юв77234 0.0 10171979
16:00+30ююв87235 0.0 10161812
19:00+28юв78255 0.0 10171114
22:00+23вюв410310 0.0 1017231